contact:dominique.lefevre@mio.osupytheas.fr, maurice.libes@osupytheas.fr, didier.mallarino@osupytheas.fr
Project:EMSO http://www.emso-fr.org/EMSO-France
Depth: 2436.0 m
Title:EMSO Ligure Ouest : Data MII capteur AQUADOPP
Date,Latitude,Longitude,X_East,Y_North,Z_Up,Amplitude_X,Amplitude_Y,Amplitude_Z,Batterie,SoundSpeed,Heading,Pitch,Roll,Pressure,TIS,Speed,Direction
, degrees North, degrees East, m.s-1, m.s-1,m.s-1, 1, 1, 1, Volt, m.s-1, degree, degree, degree, dbar, degree_C, m.s-1, degree
2021-11-16T00:04:03,42.805,6.029,-0.023,-0.031,-0.042,100.0,100.0,100.0,13.3,1505.2,329.5,-0.8,1.8,2470.583,13.28,0.038,216.6
2021-11-16T00:07:03,42.805,6.029,-0.026,-0.026,-0.061,100.0,100.0,100.0,13.4,1505.2,328.2,-0.7,1.9,2470.565,13.28,0.036,225.0
2021-11-16T00:10:03,42.805,6.029,-0.049,-0.017,-0.057,99.0,101.0,99.0,13.4,1505.2,330.0,-0.7,1.8,2470.637,13.28,0.051,250.9
2021-11-16T00:13:03,42.805,6.029,-0.059,-0.017,-0.043,100.0,101.0,100.0,13.4,1505.2,331.0,-0.8,1.9,2470.601,13.28,0.061,253.9
2021-11-16T00:16:03,42.805,6.029,-0.044,-0.003,-0.023,100.0,100.0,100.0,13.3,1505.2,328.8,-0.8,1.9,2470.588,13.28,0.044,266.1
2021-11-16T00:19:03,42.805,6.029,-0.059,0.002,-0.042,100.0,100.0,99.0,13.4,1505.2,326.2,-0.8,1.8,2470.566,13.28,0.059,271.9
2021-11-16T00:22:03,42.805,6.029,-0.046,0.005,-0.006,100.0,99.0,100.0,13.4,1505.2,329.3,-0.8,1.8,2470.567,13.28,0.046,276.2
2021-11-16T00:25:03,42.805,6.029,-0.033,0.01,-0.023,99.0,101.0,100.0,13.4,1505.2,330.3,-0.7,1.8,2470.573,13.28,0.034,286.9
2021-11-16T00:28:03,42.805,6.029,-0.052,0.0,-0.048,100.0,100.0,100.0,13.4,1505.2,329.4,-0.8,1.8,2470.603,13.28,0.052,270.0
2021-11-16T00:31:03,42.805,6.029,-0.055,-0.02,-0.059,100.0,99.0,100.0,13.4,1505.2,326.9,-0.7,1.8,2470.543,13.28,0.058,250.0
2021-11-16T00:34:03,42.805,6.029,-0.039,0.006,-0.037,100.0,100.0,99.0,13.4,1505.2,328.7,-0.8,1.8,2470.534,13.28,0.039,278.7
2021-11-16T00:37:03,42.805,6.029,-0.061,0.0,-0.037,100.0,100.0,99.0,13.4,1505.2,328.9,-0.8,1.8,2470.561,13.28,0.06,270.0
2021-11-16T00:40:03,42.805,6.029,-0.027,-0.02,-0.039,99.0,99.0,99.0,13.4,1505.2,325.7,-0.8,1.9,2470.578,13.28,0.033,233.5
2021-11-16T00:43:03,42.805,6.029,-0.049,-0.002,-0.038,100.0,100.0,99.0,13.4,1505.2,329.3,-0.7,1.9,2470.537,13.28,0.049,267.7
2021-11-16T00:46:03,42.805,6.029,-0.046,0.013,0.002,100.0,100.0,99.0,13.3,1505.2,327.0,-0.8,1.9,2470.571,13.28,0.047,285.8
2021-11-16T00:49:03,42.805,6.029,-0.061,-0.013,-0.055,100.0,100.0,99.0,13.4,1505.2,327.0,-0.8,1.8,2470.583,13.28,0.062,258.0
2021-11-16T00:52:03,42.805,6.029,-0.044,0.006,-0.035,100.0,99.0,99.0,13.4,1505.2,328.7,-0.8,1.8,2470.54,13.28,0.044,277.8
2021-11-16T00:55:03,42.805,6.029,-0.029,-0.013,-0.019,100.0,99.0,99.0,13.4,1505.2,326.3,-0.8,1.8,2470.555,13.28,0.031,245.9
2021-11-16T00:58:03,42.805,6.029,-0.059,0.001,-0.009,100.0,100.0,99.0,13.4,1505.2,326.5,-0.8,1.9,2470.608,13.28,0.059,271.0
2021-11-16T01:04:03,42.805,6.029,-0.077,-0.043,-0.118,103.0,101.0,101.0,13.4,1505.2,330.6,-0.8,1.8,2470.622,13.28,0.088,240.8
2021-11-16T01:07:03,42.805,6.029,-0.047,-0.018,-0.06,100.0,101.0,99.0,13.4,1505.2,331.8,-0.7,1.8,2470.609,13.28,0.05,249.0
2021-11-16T01:10:03,42.805,6.029,-0.009,-0.019,-0.052,102.0,100.0,100.0,13.4,1505.2,331.5,-0.8,1.8,2470.6,13.28,0.021,205.3
2021-11-16T01:13:03,42.805,6.029,-0.056,-0.02,-0.037,100.0,102.0,101.0,13.4,1505.2,329.3,-0.8,1.8,2470.634,13.28,0.059,250.4
2021-11-16T01:16:03,42.805,6.029,-0.08,-0.019,-0.078,100.0,99.0,98.0,13.3,1505.2,329.2,-0.7,1.9,2470.572,13.28,0.082,256.6
2021-11-16T01:19:03,42.805,6.029,-0.065,-0.002,-0.031,98.0,101.0,101.0,13.3,1505.2,327.6,-0.8,1.8,2470.577,13.28,0.065,268.2
2021-11-16T01:22:03,42.805,6.029,-0.036,-0.012,-0.063,100.0,101.0,99.0,13.4,1505.2,330.0,-0.8,1.8,2470.551,13.28,0.037,251.6
2021-11-16T01:25:03,42.805,6.029,-0.037,-0.003,-0.032,100.0,100.0,100.0,13.3,1505.2,329.2,-0.7,1.8,2470.595,13.28,0.037,265.4
2021-11-16T01:28:03,42.805,6.029,-0.043,0.0,0.0,100.0,100.0,100.0,13.3,1505.2,328.4,-0.7,1.8,2470.556,13.28,0.043,270.0
2021-11-16T01:31:03,42.805,6.029,-0.05,-0.017,-0.047,99.0,101.0,99.0,13.3,1505.2,330.9,-0.8,1.8,2470.592,13.28,0.052,251.2
2021-11-16T01:34:03,42.805,6.029,-0.05,-0.013,-0.039,101.0,99.0,100.0,13.4,1505.2,329.3,-0.8,1.8,2470.561,13.28,0.051,255.4
2021-11-16T01:37:03,42.805,6.029,-0.045,-0.004,-0.025,100.0,100.0,99.0,13.4,1505.2,327.0,-0.8,1.8,2470.595,13.28,0.045,264.9
2021-11-16T01:40:03,42.805,6.029,-0.059,-0.006,-0.031,100.0,100.0,100.0,13.3,1505.2,328.9,-0.8,1.8,2470.568,13.28,0.059,264.2
2021-11-16T01:43:03,42.805,6.029,-0.072,-0.001,-0.038,100.0,100.0,99.0,13.4,1505.2,328.8,-0.8,1.8,2470.595,13.28,0.072,269.2
2021-11-16T01:46:03,42.805,6.029,-0.049,0.0,-0.042,100.0,99.0,99.0,13.4,1505.2,329.5,-0.8,1.8,2470.591,13.28,0.049,270.0
2021-11-16T01:49:03,42.805,6.029,-0.039,-0.008,-0.035,100.0,99.0,100.0,13.4,1505.2,326.5,-0.7,1.8,2470.581,13.28,0.039,258.4
2021-11-16T01:52:03,42.805,6.029,-0.036,-0.019,-0.026,100.0,101.0,100.0,13.4,1505.2,324.7,-0.8,1.8,2470.614,13.28,0.04,242.2
2021-11-16T01:55:03,42.805,6.029,-0.039,-0.022,-0.043,100.0,101.0,100.0,13.3,1505.2,329.5,-0.8,1.9,2470.583,13.28,0.044,240.6
2021-11-16T01:58:03,42.805,6.029,-0.06,0.005,-0.044,100.0,101.0,101.0,13.4,1505.2,326.5,-0.7,1.8,2470.564,13.28,0.06,274.8
2021-11-16T02:04:03,42.805,6.029,-0.066,-0.014,-0.068,101.0,100.0,100.0,13.4,1505.2,331.5,-0.7,1.8,2470.637,13.28,0.067,258.0
2021-11-16T02:07:03,42.805,6.029,-0.054,0.004,-0.048,100.0,100.0,100.0,13.3,1505.2,328.0,-0.8,1.8,2470.655,13.28,0.054,274.2
2021-11-16T02:10:03,42.805,6.029,-0.043,-0.026,-0.033,101.0,100.0,100.0,13.4,1505.2,325.6,-0.8,1.8,2470.637,13.28,0.05,238.8
2021-11-16T02:13:03,42.805,6.029,-0.029,-0.001,-0.017,100.0,101.0,100.0,13.4,1505.2,329.1,-0.7,1.8,2470.639,13.28,0.029,268.0
2021-11-16T02:16:03,42.805,6.029,-0.066,0.002,-0.022,99.0,100.0,100.0,13.4,1505.2,327.3,-0.7,1.8,2470.618,13.28,0.066,271.7
2021-11-16T02:19:03,42.805,6.029,-0.043,0.001,-0.053,101.0,100.0,100.0,13.4,1505.2,326.7,-0.7,1.8,2470.662,13.28,0.043,271.3
2021-11-16T02:22:03,42.805,6.029,-0.053,-0.004,-0.014,101.0,100.0,100.0,13.4,1505.2,329.2,-0.7,1.8,2470.596,13.28,0.053,265.7
2021-11-16T02:25:03,42.805,6.029,-0.051,0.0,-0.019,102.0,100.0,99.0,13.4,1505.2,330.2,-0.8,1.8,2470.662,13.28,0.051,270.0
2021-11-16T02:28:03,42.805,6.029,-0.052,0.0,-0.034,100.0,102.0,100.0,13.4,1505.2,329.2,-0.8,1.8,2470.659,13.28,0.052,270.0
2021-11-16T02:31:03,42.805,6.029,-0.041,0.005,-0.026,99.0,100.0,101.0,13.3,1505.2,326.8,-0.8,1.8,2470.611,13.28,0.041,277.0
2021-11-16T02:34:03,42.805,6.029,-0.037,-0.003,-0.033,101.0,100.0,99.0,13.4,1505.2,326.7,-0.7,1.8,2470.654,13.28,0.037,265.4
2021-11-16T02:37:03,42.805,6.029,-0.057,-0.016,-0.036,102.0,101.0,100.0,13.4,1505.2,328.2,-0.7,1.8,2470.615,13.28,0.059,254.3
2021-11-16T02:40:03,42.805,6.029,-0.056,-0.009,-0.027,101.0,100.0,100.0,13.3,1505.2,328.5,-0.8,1.8,2470.626,13.28,0.056,260.9
2021-11-16T02:43:03,42.805,6.029,-0.058,-0.018,-0.062,101.0,99.0,100.0,13.3,1505.2,326.9,-0.7,1.8,2470.627,13.28,0.06,252.8
2021-11-16T02:46:03,42.805,6.029,-0.037,-0.027,-0.045,101.0,100.0,100.0,13.4,1505.2,329.2,-0.8,1.9,2470.651,13.28,0.045,233.9
2021-11-16T02:49:03,42.805,6.029,-0.056,-0.015,-0.061,101.0,99.0,100.0,13.4,1505.2,329.6,-0.7,1.8,2470.609,13.28,0.057,255.0
2021-11-16T02:52:03,42.805,6.029,-0.065,0.005,-0.016,101.0,100.0,101.0,13.4,1505.2,329.4,-0.8,1.8,2470.62,13.28,0.065,274.4
2021-11-16T02:55:03,42.805,6.029,-0.051,0.007,-0.04,101.0,100.0,100.0,13.4,1505.2,329.7,-0.8,1.8,2470.624,13.28,0.051,277.8
2021-11-16T02:58:03,42.805,6.029,-0.056,0.007,0.011,101.0,101.0,100.0,13.4,1505.2,329.4,-0.7,1.8,2470.68,13.28,0.056,277.1
2021-11-16T03:04:03,42.805,6.029,-0.047,-0.004,-0.005,101.0,100.0,100.0,13.3,1505.2,329.5,-0.7,1.8,2470.704,13.28,0.047,265.1
2021-11-16T03:07:03,42.805,6.029,-0.049,0.002,-0.042,101.0,101.0,100.0,13.3,1505.2,326.9,-0.8,1.8,2470.684,13.28,0.049,272.3
2021-11-16T03:10:03,42.805,6.029,-0.057,0.0,-0.032,101.0,100.0,103.0,13.4,1505.2,327.6,-0.8,1.8,2470.691,13.28,0.057,270.0
2021-11-16T03:13:03,42.805,6.029,-0.056,0.014,0.004,102.0,100.0,99.0,13.4,1505.2,328.0,-0.8,1.8,2470.666,13.28,0.057,284.0
2021-11-16T03:16:03,42.805,6.029,-0.073,0.002,-0.052,101.0,101.0,100.0,13.4,1505.2,327.0,-0.8,1.8,2470.634,13.28,0.073,271.6
2021-11-16T03:19:03,42.805,6.029,-0.07,0.009,-0.042,102.0,100.0,100.0,13.4,1505.2,332.0,-0.8,1.8,2470.658,13.28,0.07,277.3
2021-11-16T03:22:03,42.805,6.029,-0.046,0.011,-0.019,101.0,101.0,100.0,13.4,1505.2,328.7,-0.7,1.8,2470.655,13.28,0.047,283.4
2021-11-16T03:25:03,42.805,6.029,-0.053,0.004,-0.047,101.0,101.0,100.0,13.4,1505.2,327.8,-0.8,1.9,2470.678,13.28,0.053,274.3
2021-11-16T03:28:03,42.805,6.029,-0.044,-0.008,-0.025,101.0,100.0,100.0,13.4,1505.2,328.2,-0.8,1.8,2470.662,13.28,0.044,259.7
2021-11-16T03:31:03,42.805,6.029,-0.075,0.018,-0.004,101.0,100.0,100.0,13.4,1505.2,328.0,-0.8,1.9,2470.658,13.28,0.077,283.5
2021-11-16T03:34:03,42.805,6.029,-0.058,-0.002,-0.043,100.0,101.0,101.0,13.4,1505.2,326.0,-0.7,1.8,2470.649,13.28,0.058,268.0
2021-11-16T03:37:03,42.805,6.029,-0.028,0.003,0.0,102.0,99.0,100.0,13.4,1505.2,330.0,-0.8,1.9,2470.665,13.28,0.028,276.1
2021-11-16T03:40:03,42.805,6.029,-0.068,0.018,-0.045,101.0,99.0,101.0,13.4,1505.2,328.0,-0.8,1.8,2470.665,13.28,0.07,284.8
2021-11-16T03:43:03,42.805,6.029,-0.071,0.015,-0.024,101.0,99.0,101.0,13.4,1505.2,326.8,-0.8,1.8,2470.646,13.28,0.072,281.9
2021-11-16T03:46:03,42.805,6.029,-0.05,0.012,-0.004,101.0,100.0,100.0,13.3,1505.2,326.2,-0.8,1.8,2470.634,13.28,0.051,283.5
2021-11-16T03:49:03,42.805,6.029,-0.072,0.005,-0.039,101.0,100.0,100.0,13.4,1505.2,328.0,-0.7,1.8,2470.69,13.28,0.072,274.0
2021-11-16T03:52:03,42.805,6.029,-0.062,-0.004,-0.021,101.0,101.0,101.0,13.4,1505.2,326.1,-0.8,1.8,2470.682,13.28,0.062,266.3
2021-11-16T03:55:03,42.805,6.029,-0.053,0.014,-0.012,104.0,101.0,101.0,13.4,1505.2,329.6,-0.8,1.8,2470.707,13.28,0.054,284.8
2021-11-16T03:58:03,42.805,6.029,-0.033,-0.01,-0.019,101.0,101.0,101.0,13.3,1505.2,326.5,-0.7,1.8,2470.679,13.28,0.034,253.1
2021-11-16T04:04:03,42.805,6.029,-0.051,-0.008,0.0,101.0,100.0,100.0,13.3,1505.2,327.9,-0.8,1.8,2470.698,13.28,0.051,261.1
2021-11-16T04:07:03,42.805,6.029,-0.052,-0.005,-0.05,100.0,100.0,100.0,13.4,1505.2,329.8,-0.8,1.8,2470.714,13.28,0.052,264.5
2021-11-16T04:10:03,42.805,6.029,-0.044,-0.001,-0.04,101.0,101.0,99.0,13.3,1505.2,328.1,-0.8,1.8,2470.706,13.28,0.044,268.7
2021-11-16T04:13:03,42.805,6.029,-0.046,-0.005,-0.034,101.0,100.0,101.0,13.3,1505.2,326.9,-0.7,1.8,2470.694,13.28,0.046,263.8
2021-11-16T04:16:03,42.805,6.029,-0.037,-0.011,-0.037,100.0,100.0,100.0,13.3,1505.2,325.6,-0.7,1.8,2470.724,13.28,0.038,253.4
2021-11-16T04:19:03,42.805,6.029,-0.052,0.011,-0.013,101.0,100.0,100.0,13.4,1505.2,329.0,-0.8,1.9,2470.699,13.28,0.053,281.9
2021-11-16T04:22:03,42.805,6.029,-0.038,-0.007,-0.045,101.0,100.0,100.0,13.4,1505.2,327.7,-0.7,1.8,2470.697,13.28,0.038,259.6
2021-11-16T04:25:03,42.805,6.029,-0.048,-0.004,-0.055,101.0,100.0,101.0,13.4,1505.2,326.7,-0.8,1.8,2470.69,13.28,0.048,265.2
2021-11-16T04:28:03,42.805,6.029,-0.037,0.0,-0.023,101.0,101.0,99.0,13.4,1505.2,327.6,-0.8,1.9,2470.68,13.28,0.037,270.0
2021-11-16T04:31:03,42.805,6.029,-0.057,-0.015,-0.033,101.0,100.0,100.0,13.3,1505.2,328.1,-0.8,1.8,2470.661,13.28,0.058,255.3
2021-11-16T04:34:03,42.805,6.029,-0.048,-0.016,-0.037,100.0,100.0,100.0,13.4,1505.2,328.2,-0.7,1.8,2470.666,13.28,0.05,251.6
2021-11-16T04:37:03,42.805,6.029,-0.036,0.0,-0.022,101.0,101.0,101.0,13.4,1505.2,331.0,-0.8,1.8,2470.72,13.28,0.036,270.0
2021-11-16T04:40:03,42.805,6.029,-0.042,0.011,-0.02,101.0,100.0,100.0,13.4,1505.2,329.4,-0.8,1.8,2470.673,13.28,0.043,284.7
2021-11-16T04:43:03,42.805,6.029,-0.043,0.003,-0.028,101.0,100.0,100.0,13.4,1505.2,327.3,-0.8,1.8,2470.712,13.28,0.043,274.0
2021-11-16T04:46:03,42.805,6.029,-0.028,-0.015,-0.038,101.0,101.0,100.0,13.3,1505.2,326.1,-0.8,1.8,2470.681,13.28,0.031,241.8
2021-11-16T04:49:03,42.805,6.029,-0.062,0.002,-0.018,101.0,98.0,100.0,13.3,1505.2,325.4,-0.7,1.8,2470.685,13.28,0.062,271.8
2021-11-16T04:52:03,42.805,6.029,-0.054,-0.006,-0.013,101.0,99.0,100.0,13.4,1505.2,330.6,-0.8,1.8,2470.686,13.28,0.054,263.7
2021-11-16T04:55:03,42.805,6.029,-0.059,0.012,-0.037,102.0,99.0,100.0,13.3,1505.2,326.7,-0.8,1.8,2470.68,13.28,0.06,281.5
2021-11-16T04:58:03,42.805,6.029,-0.034,0.01,-0.029,102.0,101.0,99.0,13.4,1505.2,324.8,-0.8,1.8,2470.671,13.28,0.035,286.4
2021-11-16T05:04:03,42.805,6.029,-0.029,-0.013,-0.035,101.0,100.0,100.0,13.4,1505.2,329.7,-0.8,1.8,2470.657,13.28,0.031,245.9
2021-11-16T05:07:03,42.805,6.029,-0.036,0.0,-0.018,101.0,100.0,99.0,13.3,1505.2,327.5,-0.8,1.8,2470.642,13.28,0.036,270.0
2021-11-16T05:10:03,42.805,6.029,-0.059,0.017,-0.049,100.0,101.0,100.0,13.4,1505.2,329.1,-0.8,1.8,2470.644,13.28,0.061,286.1
2021-11-16T05:13:03,42.805,6.029,-0.055,0.012,-0.057,101.0,101.0,100.0,13.3,1505.2,328.5,-0.8,1.8,2470.647,13.28,0.056,282.3
2021-11-16T05:16:03,42.805,6.029,-0.023,0.01,0.003,101.0,101.0,100.0,13.4,1505.2,328.7,-0.8,1.9,2470.61,13.28,0.025,293.5
2021-11-16T05:19:03,42.805,6.029,-0.034,0.016,0.003,102.0,101.0,100.0,13.3,1505.2,329.6,-0.8,1.9,2470.592,13.28,0.037,295.2
2021-11-16T05:22:03,42.805,6.029,-0.065,0.016,-0.034,100.0,101.0,100.0,13.4,1505.2,327.0,-0.7,1.8,2470.622,13.28,0.066,283.8
2021-11-16T05:25:03,42.805,6.029,-0.038,-0.016,-0.045,101.0,100.0,100.0,13.4,1505.2,329.4,-0.8,1.8,2470.592,13.28,0.041,247.2
2021-11-16T05:28:03,42.805,6.029,-0.057,0.0,0.005,101.0,99.0,100.0,13.4,1505.2,326.2,-0.7,1.8,2470.603,13.28,0.057,270.0
2021-11-16T05:31:03,42.805,6.029,-0.052,0.001,-0.048,101.0,99.0,100.0,13.4,1505.2,329.1,-0.7,1.8,2470.607,13.28,0.052,271.1
2021-11-16T05:34:03,42.805,6.029,-0.033,0.006,-0.019,101.0,101.0,99.0,13.4,1505.2,328.4,-0.8,1.9,2470.637,13.28,0.033,280.3
2021-11-16T05:37:03,42.805,6.029,-0.049,0.016,-0.028,101.0,101.0,99.0,13.4,1505.2,331.6,-0.8,1.8,2470.634,13.28,0.051,288.1
2021-11-16T05:40:03,42.805,6.029,-0.062,0.013,-0.043,101.0,101.0,100.0,13.4,1505.2,327.3,-0.8,1.8,2470.593,13.28,0.063,281.8
2021-11-16T05:43:03,42.805,6.029,-0.051,0.022,-0.02,101.0,100.0,100.0,13.4,1505.2,327.6,-0.8,1.8,2470.641,13.28,0.055,293.3
2021-11-16T05:46:03,42.805,6.029,-0.051,0.006,-0.036,99.0,101.0,101.0,13.4,1505.2,332.0,-0.8,1.9,2470.641,13.28,0.051,276.7
2021-11-16T05:49:03,42.805,6.029,-0.029,0.008,-0.013,101.0,100.0,100.0,13.4,1505.2,326.3,-0.7,1.9,2470.641,13.28,0.03,285.4
2021-11-16T05:52:03,42.805,6.029,-0.054,0.003,-0.05,102.0,100.0,99.0,13.3,1505.2,327.0,-0.8,1.8,2470.645,13.28,0.054,273.2
2021-11-16T05:55:03,42.805,6.029,-0.036,0.025,-0.013,100.0,101.0,100.0,13.4,1505.2,325.8,-0.7,1.8,2470.647,13.28,0.043,304.8
2021-11-16T05:58:03,42.805,6.029,-0.039,-0.006,-0.021,101.0,100.0,100.0,13.4,1505.2,325.2,-0.7,1.8,2470.664,13.28,0.039,261.3
2021-11-16T06:04:03,42.805,6.029,-0.017,0.011,-0.034,101.0,101.0,100.0,13.3,1505.2,330.1,-0.8,1.8,2470.731,13.28,0.02,302.9
2021-11-16T06:07:03,42.805,6.029,-0.019,0.002,-0.018,101.0,101.0,100.0,13.3,1505.2,329.5,-0.7,1.8,2470.712,13.28,0.019,276.0
2021-11-16T06:10:03,42.805,6.029,-0.046,-0.004,-0.031,101.0,101.0,99.0,13.3,1505.2,327.2,-0.8,1.8,2470.707,13.28,0.046,265.0
2021-11-16T06:13:03,42.805,6.029,-0.057,0.026,-0.025,101.0,100.0,100.0,13.4,1505.2,329.6,-0.8,1.8,2470.676,13.28,0.062,294.5
2021-11-16T06:16:03,42.805,6.029,-0.061,0.03,-0.036,101.0,101.0,100.0,13.4,1505.2,329.2,-0.7,1.8,2470.679,13.28,0.067,296.2
2021-11-16T06:19:03,42.805,6.029,-0.057,0.015,-0.028,100.0,100.0,100.0,13.4,1505.2,330.8,-0.8,1.8,2470.711,13.28,0.058,284.7
2021-11-16T06:22:03,42.805,6.029,-0.045,-0.002,-0.029,100.0,100.0,100.0,13.3,1505.2,326.5,-0.7,1.8,2470.697,13.28,0.045,267.5
2021-11-16T06:25:03,42.805,6.029,-0.04,0.003,-0.049,101.0,100.0,100.0,13.4,1505.2,325.2,-0.7,1.8,2470.686,13.28,0.04,274.3
2021-11-16T06:28:03,42.805,6.029,-0.065,0.008,-0.036,101.0,101.0,100.0,13.4,1505.2,326.8,-0.8,1.8,2470.693,13.28,0.065,277.0
2021-11-16T06:31:03,42.805,6.029,-0.06,0.005,-0.054,101.0,101.0,100.0,13.4,1505.2,326.6,-0.8,1.8,2470.688,13.28,0.06,274.8
2021-11-16T06:34:03,42.805,6.029,-0.045,-0.002,-0.022,102.0,101.0,98.0,13.3,1505.2,331.4,-0.7,1.8,2470.673,13.28,0.045,267.5
2021-11-16T06:37:03,42.805,6.029,-0.04,0.01,-0.038,102.0,101.0,100.0,13.3,1505.2,332.0,-0.8,1.8,2470.683,13.28,0.041,284.0
2021-11-16T06:40:03,42.805,6.029,-0.046,0.013,0.007,101.0,100.0,101.0,13.3,1505.2,329.4,-0.8,1.8,2470.707,13.28,0.047,285.8
2021-11-16T06:43:03,42.805,6.029,-0.029,-0.004,-0.013,101.0,100.0,100.0,13.4,1505.2,328.7,-0.8,1.8,2470.683,13.28,0.029,262.2
2021-11-16T06:46:03,42.805,6.029,-0.049,-0.003,-0.014,102.0,101.0,100.0,13.4,1505.2,327.2,-0.7,1.8,2470.683,13.28,0.049,266.5
2021-11-16T06:49:03,42.805,6.029,-0.027,-0.008,-0.015,101.0,101.0,99.0,13.3,1505.2,329.0,-0.8,1.8,2470.701,13.28,0.028,253.5
2021-11-16T06:52:03,42.805,6.029,-0.046,0.006,-0.044,101.0,100.0,100.0,13.4,1505.2,325.6,-0.7,1.8,2470.672,13.28,0.046,277.4
2021-11-16T06:55:03,42.805,6.029,-0.05,-0.01,-0.046,100.0,101.0,101.0,13.3,1505.2,326.1,-0.8,1.9,2470.698,13.28,0.05,258.7
2021-11-16T06:58:03,42.805,6.029,-0.043,0.012,-0.017,101.0,101.0,100.0,13.4,1505.2,326.5,-0.8,1.8,2470.683,13.28,0.044,285.6
2021-11-16T07:04:03,42.805,6.029,-0.046,0.01,-0.028,101.0,101.0,100.0,13.3,1505.2,329.3,-0.8,1.8,2470.732,13.28,0.047,282.3
2021-11-16T07:07:03,42.805,6.029,-0.028,0.002,-0.035,102.0,101.0,99.0,13.4,1505.2,328.3,-0.8,1.8,2470.744,13.28,0.028,274.1
2021-11-16T07:10:03,42.805,6.029,-0.054,-0.006,-0.005,101.0,100.0,101.0,13.4,1505.2,326.8,-0.8,1.8,2470.749,13.28,0.054,263.7
2021-11-16T07:13:03,42.805,6.029,-0.059,0.005,-0.034,101.0,102.0,100.0,13.4,1505.2,326.8,-0.8,1.8,2470.691,13.28,0.059,274.8
2021-11-16T07:16:03,42.805,6.029,-0.01,0.001,-0.033,101.0,101.0,101.0,13.3,1505.2,328.6,-0.7,1.8,2470.74,13.28,0.01,275.7
2021-11-16T07:19:03,42.805,6.029,-0.043,-0.007,0.0,101.0,101.0,100.0,13.3,1505.2,328.5,-0.8,1.8,2470.701,13.28,0.043,260.8
2021-11-16T07:22:03,42.805,6.029,-0.037,-0.018,-0.062,102.0,102.0,99.0,13.3,1505.2,327.5,-0.7,1.8,2470.744,13.28,0.041,244.1
2021-11-16T07:25:03,42.805,6.029,-0.058,0.001,-0.048,101.0,100.0,100.0,13.4,1505.2,330.5,-0.8,1.8,2470.738,13.28,0.058,271.0
2021-11-16T07:28:03,42.805,6.029,-0.038,0.006,-0.034,101.0,100.0,100.0,13.4,1505.2,331.1,-0.7,1.8,2470.726,13.28,0.038,279.0
2021-11-16T07:31:03,42.805,6.029,-0.055,0.005,-0.03,101.0,101.0,100.0,13.4,1505.2,329.7,-0.8,1.8,2470.744,13.28,0.055,275.2
2021-11-16T07:34:02,42.805,6.029,-0.046,0.0,-0.046,101.0,100.0,101.0,13.4,1505.2,328.4,-0.8,1.8,2470.689,13.28,0.046,270.0
2021-11-16T07:37:02,42.805,6.029,-0.053,-0.014,-0.036,101.0,98.0,100.0,13.4,1505.2,330.8,-0.8,1.8,2470.703,13.28,0.054,255.2
2021-11-16T07:40:03,42.805,6.029,-0.043,0.025,-0.017,102.0,98.0,99.0,13.3,1505.2,325.4,-0.8,1.8,2470.699,13.28,0.049,300.2
2021-11-16T07:43:03,42.805,6.029,-0.04,0.0,-0.048,101.0,101.0,100.0,13.4,1505.2,329.5,-0.7,1.8,2470.691,13.28,0.04,270.0
2021-11-16T07:46:03,42.805,6.029,-0.03,0.009,0.003,100.0,100.0,100.0,13.4,1505.2,326.9,-0.7,1.8,2470.686,13.28,0.031,286.7
2021-11-16T07:49:03,42.805,6.029,-0.022,-0.012,-0.047,101.0,100.0,100.0,13.4,1505.2,330.5,-0.7,1.9,2470.673,13.28,0.025,241.4
2021-11-16T07:52:03,42.805,6.029,-0.051,-0.003,-0.045,101.0,99.0,100.0,13.4,1505.2,327.1,-0.8,1.8,2470.692,13.28,0.051,266.6
2021-11-16T07:55:03,42.805,6.029,-0.043,0.0,-0.009,99.0,101.0,100.0,13.3,1505.2,325.1,-0.7,1.8,2470.694,13.28,0.043,270.0
2021-11-16T07:58:03,42.805,6.029,-0.064,-0.003,-0.047,101.0,101.0,99.0,13.3,1505.2,329.5,-0.8,1.8,2470.677,13.28,0.064,267.3
2021-11-16T08:04:03,42.805,6.029,-0.061,-0.011,-0.039,101.0,100.0,101.0,13.4,1505.2,326.4,-0.8,1.8,2470.709,13.28,0.061,259.8
2021-11-16T08:07:03,42.805,6.029,-0.038,-0.005,-0.027,101.0,100.0,100.0,13.3,1505.2,327.5,-0.7,1.8,2470.689,13.28,0.038,262.5
2021-11-16T08:10:03,42.805,6.029,-0.024,0.002,-0.034,99.0,99.0,101.0,13.4,1505.2,331.3,-0.8,1.8,2470.73,13.28,0.024,274.8
2021-11-16T08:13:03,42.805,6.029,-0.022,-0.01,-0.021,102.0,101.0,99.0,13.4,1505.2,328.0,-0.8,1.8,2470.722,13.28,0.024,245.6
2021-11-16T08:16:03,42.805,6.029,-0.041,0.0,-0.041,101.0,100.0,100.0,13.4,1505.2,325.7,-0.7,1.8,2470.728,13.28,0.041,270.0
2021-11-16T08:19:03,42.805,6.029,-0.05,0.024,-0.008,100.0,100.0,100.0,13.4,1505.2,327.7,-0.7,1.8,2470.695,13.28,0.055,295.6
2021-11-16T08:22:03,42.805,6.029,-0.048,-0.001,-0.031,100.0,101.0,100.0,13.4,1505.2,325.6,-0.8,1.8,2470.703,13.28,0.048,268.8
2021-11-16T08:25:03,42.805,6.029,-0.046,-0.004,-0.025,101.0,100.0,100.0,13.4,1505.2,329.7,-0.8,1.8,2470.695,13.28,0.046,265.0
2021-11-16T08:28:03,42.805,6.029,-0.039,0.01,-0.019,101.0,100.0,100.0,13.4,1505.2,326.5,-0.8,1.8,2470.707,13.28,0.04,284.4
2021-11-16T08:31:03,42.805,6.029,-0.025,-0.026,-0.072,99.0,100.0,101.0,13.4,1505.2,327.8,-0.8,1.8,2470.673,13.28,0.036,223.9
2021-11-16T08:34:03,42.805,6.029,-0.054,-0.024,-0.038,101.0,100.0,101.0,13.3,1505.2,328.6,-0.8,1.8,2470.659,13.28,0.059,246.0
2021-11-16T08:37:03,42.805,6.029,-0.054,-0.011,-0.029,100.0,100.0,101.0,13.4,1505.2,326.7,-0.8,1.8,2470.668,13.28,0.055,258.5
2021-11-16T08:40:03,42.805,6.029,-0.048,-0.002,-0.021,101.0,100.0,101.0,13.4,1505.2,326.4,-0.8,1.8,2470.655,13.28,0.048,267.6
2021-11-16T08:43:03,42.805,6.029,-0.027,-0.008,-0.032,101.0,101.0,100.0,13.3,1505.2,327.2,-0.7,1.8,2470.719,13.28,0.028,253.5
2021-11-16T08:46:03,42.805,6.029,-0.051,-0.001,-0.05,102.0,101.0,99.0,13.3,1505.2,330.2,-0.7,1.8,2470.645,13.28,0.051,268.9
2021-11-16T08:49:03,42.805,6.029,-0.063,0.0,-0.011,101.0,100.0,100.0,13.4,1505.2,329.4,-0.7,1.8,2470.668,13.28,0.062,270.0
2021-11-16T08:52:03,42.805,6.029,-0.043,0.008,-0.021,101.0,101.0,100.0,13.3,1505.2,326.9,-0.8,1.9,2470.645,13.28,0.043,280.5
2021-11-16T08:55:03,42.805,6.029,-0.037,-0.005,-0.007,101.0,100.0,100.0,13.4,1505.2,330.8,-0.7,1.8,2470.649,13.28,0.037,262.3
2021-11-16T08:58:03,42.805,6.029,-0.037,-0.005,-0.02,101.0,101.0,100.0,13.3,1505.2,328.9,-0.8,1.8,2470.646,13.28,0.037,262.3
2021-11-16T09:04:03,42.805,6.029,-0.066,0.036,-0.039,101.0,100.0,100.0,13.4,1505.2,327.0,-0.8,1.8,2470.727,13.28,0.075,298.6
2021-11-16T09:07:03,42.805,6.029,-0.056,0.0,0.01,100.0,101.0,100.0,13.4,1505.2,326.7,-0.7,1.8,2470.711,13.28,0.056,270.0
2021-11-16T09:10:03,42.805,6.029,-0.043,0.009,-0.01,100.0,101.0,100.0,13.4,1505.2,327.4,-0.8,1.8,2470.714,13.28,0.043,281.8
2021-11-16T09:13:03,42.805,6.029,-0.053,0.001,-0.034,101.0,101.0,99.0,13.4,1505.2,328.6,-0.7,1.8,2470.717,13.28,0.053,271.1
2021-11-16T09:16:03,42.805,6.029,-0.025,-0.011,-0.022,100.0,101.0,100.0,13.3,1505.2,325.6,-0.8,1.8,2470.685,13.28,0.027,246.3
2021-11-16T09:19:03,42.805,6.029,-0.046,-0.007,-0.044,100.0,100.0,101.0,13.4,1505.2,329.2,-0.7,1.8,2470.657,13.28,0.046,261.3
2021-11-16T09:22:03,42.805,6.029,-0.033,0.0,-0.024,100.0,99.0,100.0,13.4,1505.2,330.9,-0.8,1.8,2470.623,13.28,0.033,270.0
2021-11-16T09:25:03,42.805,6.029,-0.045,0.002,-0.024,101.0,101.0,100.0,13.4,1505.2,329.8,-0.8,1.8,2470.671,13.28,0.045,272.5
2021-11-16T09:28:03,42.805,6.029,-0.051,0.02,-0.007,101.0,100.0,100.0,13.4,1505.2,327.9,-0.7,1.8,2470.659,13.28,0.054,291.4
2021-11-16T09:31:03,42.805,6.029,-0.025,-0.01,-0.024,101.0,99.0,100.0,13.4,1505.2,331.5,-0.7,1.8,2470.671,13.28,0.026,248.2
2021-11-16T09:34:03,42.805,6.029,-0.051,0.002,-0.016,101.0,100.0,100.0,13.4,1505.2,330.8,-0.8,1.8,2470.632,13.28,0.051,272.2
2021-11-16T09:37:03,42.805,6.029,-0.046,-0.036,-0.021,102.0,101.0,100.0,13.4,1505.2,326.6,-0.7,1.8,2470.662,13.28,0.058,232.0
2021-11-16T09:40:03,42.805,6.029,-0.024,-0.009,-0.05,99.0,101.0,101.0,13.3,1505.2,329.1,-0.8,1.9,2470.672,13.28,0.025,249.4
2021-11-16T09:43:04,42.805,6.029,-0.037,-0.013,-0.05,101.0,101.0,99.0,13.3,1505.2,326.7,-0.7,1.8,2470.63,13.28,0.039,250.6
2021-11-16T09:46:03,42.805,6.029,-0.023,-0.027,-0.029,101.0,101.0,100.0,13.4,1505.2,326.0,-0.8,1.8,2470.683,13.28,0.035,220.4
2021-11-16T09:49:03,42.805,6.029,-0.014,-0.026,-0.028,101.0,102.0,99.0,13.4,1505.2,329.9,-0.8,1.8,2470.641,13.28,0.029,208.3
2021-11-16T09:52:03,42.805,6.029,-0.035,-0.004,-0.016,101.0,99.0,102.0,13.4,1505.2,329.5,-0.7,1.9,2470.649,13.28,0.035,263.5